Regional Weather Roundup
Issued by NWS Nashville, TN

Home | Current Version | Previous Version | Text Only | Print | Product List | Glossary On
Versions: 1 2 3 4 5 6 7 8 9 10 11 12 13 14 15 16 17 18 19 20 21 22 23 24 25 26 27 28 29 30 31 32 33 34 35 36 37 38 39 40 41 42 43 44 45 46 47 48 49 50
000
ASUS44 KOHX 240010
RWROHX
MIDDLE TENNESSEE HOURLY WEATHER ROUNDUP
NATIONAL WEATHER SERVICE NASHVILLE TN
700 PM CDT THU MAR 23 2017

NOTE: "FAIR" INDICATES FEW OR NO CLOUDS BELOW 12,000 FEET WITH
NO SIGNIFICANT WEATHER AND/OR OBSTRUCTIONS TO VISIBILITY.

* THESE REPORTS ARE NOT UNDER NWS QUALITY CONTROL AND MAY NOT
  REPORT WEATHER SUCH AS PRECIPITATION AND FOG.


TNZ005>011-023>034-057-059-062>066-078-080-240100
...NORTHERN MIDDLE TENNESSEE...

CITY           SKY/WX    TMP DP  RH WIND       PRES   REMARKS
CLARKSVILLE    CLEAR     59  44  57 E6        30.17F
CROSSVILLE     MOCLDY    55  39  54 S6        30.30F
GALLATIN       CLEAR     64  43  45 S9        30.24F
NASHVILLE      PTCLDY    67  42  40 S10       30.22F
PORTLAND       CLOUDY    63  41  45 SE6       30.21F
SMYRNA         CLEAR     67  44  43 S10       30.23F
SPARTA         PTCLDY    61  41  48 S7        30.26S
SPRINGFIELD    CLEAR     63  43  48 SE7       30.19S
WEST NASHVILLE CLEAR     66  39  37 SE9       30.20F
$$
TNZ056-058-060-061-075>077-079-093>097-240100
...SOUTHERN MIDDLE TENNESSEE...

CITY           SKY/WX    TMP DP  RH WIND       PRES   REMARKS
COLUMBIA       CLEAR     70  45  40 SE8       30.20R
FAYETTEVILLE   CLEAR     66  46  48 SE10      30.25R
MCMINNVILLE    CLEAR     63  41  45 SE5       30.27S
SHELBYVILLE    CLEAR     66  46  48 SE6       30.25S
TULLAHOMA      CLEAR     64  37  36 SE9       30.27S
WINCHESTER     CLEAR     64  43  45 SE10      30.28R
$$


...KEY TO REMARKS...
VSB - VISIBILITY IN MILES
WCI - WIND CHILL INDEX
HX  - HEAT INDEX




USA.gov is the U.S. government's official web portal to all federal, state and local government web resources and services.